Snowfall_Accumulation
0.0 0.2 0.9 0.1 0.0 0.0 0.1 0.0 0.0 0.0 0.0 0.0 0.0 0.0 0.0 0.0 0.0 0.0 0.0 0.0 0.0 0.0 0.0 0.0 0.0 0.0 0.0 0.0 0.0 0.0 0.0 0.0 0.0 0.0 0.0 0.0 0.0 0.0 0.0 0.0 0.0 0.0 0.0 0.0
0.6 1.6 0.0 0.0 0.0 0.3 0.6 0.7 0.6 0.0 0.0 0.0 0.0 0.0 0.0 0.0 0.0 0.0 0.0 0.0 0.0 0.0 0.0 0.0 0.0 0.0 0.0 0.0 0.0 0.0 0.0 0.0 0.0 0.0 0.0 0.0 0.0 0.0 0.0 0.0 0.0 0.0 0.0 0.0
1.3 0.4 0.0 0.0 0.0 0.2 0.9 1.2 0.2 0.1 0.0 0.0 0.0 0.2 0.0 0.0 0.0 0.0 0.0 0.0 0.0 0.0 0.0 0.0 0.0 0.0 0.0 0.0 0.0 0.0 0.0 0.0 0.0 0.0 0.0 0.0 0.0 0.0 0.0 0.0 0.0 0.0 0.0 0.0
1.7 0.0 0.1 1.0 1.6 0.2 0.8 0.0 0.1 0.4 3.1 3.5 0.2 9.6 0.0 0.0 0.0 0.0 0.0 0.0 0.0 0.0 0.0 0.0 0.0 0.0 0.0 0.0 0.0 0.0 0.0 0.0 0.0 0.0 0.0 0.0 0.0 0.0 0.0 0.0 0.0 0.0 0.0 0.0
3.7 0.5 0.2 2.1 0.6 0.0 2.0 0.0 0.0 0.9 3.1 3.7 1.9 8.0 0.0 0.0 0.0 0.0 0.0 0.0 0.0 0.0 0.0 0.0 0.0 0.0 0.0 0.0 0.0 0.0 0.0 0.0 0.0 0.0 0.0 0.0 0.0 0.0 0.0 0.0 0.0 0.0 0.0 0.0
0.7 0.0 2.3 1.6 0.2 0.0 0.1 0.7 0.6 2.3 5.4 34.5 1.7 0.9 0.2 0.1 0.2 0.0 0.0 0.0 0.0 0.0 0.0 0.0 0.0 0.0 0.0 0.0 0.0 0.0 0.0 0.0 0.0 0.0 0.0 0.0 0.0 0.0 0.0 0.0 0.0 0.0 0.0 0.0
1.7 1.5 0.2 0.0 5.6 3.8 3.9 7.0 31.3 37.2 44.1 16.7 0.1 0.6 0.3 0.1 0.0 0.1 0.0 0.0 0.0 0.0 0.0 0.0 0.0 0.0 0.0 0.0 0.0 0.0 0.0 0.0 0.0 0.0 0.0 0.0 0.0 0.0 0.0 0.0 0.0 0.0 0.1 0.2
6.6 9.8 2.1 0.2 1.2 3.6 3.1 5.4 10.9 15.4 11.2 2.8 0.1 9.9 1.2 0.1 0.2 0.7 0.3 0.4 0.0 0.0 0.0 0.0 0.0 0.0 0.0 0.0 0.0 0.0 0.0 0.1 0.1 0.1 0.1 0.1 0.1 0.1 0.0 0.0 0.0 0.0 0.5 0.6
10.7 2.7 0.2 0.5 0.9 0.4 9.5 17.7 2.7 15.4 8.9 13.0 2.1 0.2 0.1 0.0 0.4 0.4 1.0 0.0 0.0 0.0 0.0 0.1 0.0 0.0 0.0 0.0 0.0 0.0 0.0 0.1 0.1 0.1 0.1 0.1 0.1 0.1 0.2 0.1 0.1 0.3 0.1 0.2
6.0 12.8 0.4 1.4 2.0 1.4 1.7 0.2 14.2 22.5 30.3 14.4 2.2 0.9 3.1 1.7 2.9 0.3 1.8 0.1 0.1 0.0 0.1 0.1 0.1 0.1 0.1 0.1 0.1 0.1 0.1 0.6 0.5 0.2 0.1 0.1 0.2 0.3 0.8 1.3 0.7 1.4 1.8 1.4
8.5 13.7 6.0 2.5 13.4 8.3 5.8 7.2 4.1 3.4 10.5 17.3 9.9 7.0 8.8 3.3 3.4 4.5 0.9 0.2 0.3 0.2 0.2 0.2 0.2 0.2 1.1 1.3 1.9 1.6 1.7 4.8 1.4 0.9 0.4 0.4 0.6 0.8 2.2 1.9 2.1 4.1 4.7 6.1
3.1 11.3 17.4 10.7 5.8 2.0 2.1 3.0 1.3 11.2 9.4 6.2 9.4 8.5 5.8 5.9 5.9 2.5 0.7 0.3 0.2 0.3 0.5 0.4 0.7 2.0 4.0 4.3 4.5 5.8 5.2 7.3 3.2 2.5 1.2 1.4 1.0 1.7 4.5 4.1 4.1 3.6 4.1 4.0
8.0 14.8 17.4 12.7 8.6 5.2 11.0 3.0 2.9 1.8 3.5 10.4 12.6 9.0 5.2 5.7 4.0 1.8 2.4 0.9 0.6 0.6 0.5 1.6 4.2 6.6 6.9 6.4 7.1 8.9 9.0 7.4 4.1 3.6 2.3 2.3 2.7 2.2 3.7 5.1 3.9 2.5 1.9 2.0
nan 7.0 14.3 15.6 12.8 11.7 13.7 8.8 5.1 3.8 20.9 9.2 11.7 9.0 7.7 6.3 6.0 3.4 2.2 1.4 2.2 3.8 6.9 7.0 7.4 8.7 9.2 9.4 11.1 9.5 10.9 6.2 5.5 4.8 3.5 3.7 3.8 3.5 3.1 3.1 3.4 2.3 2.4 2.5
5.4 11.4 7.1 7.4 9.1 13.4 12.9 10.2 7.0 14.0 12.7 13.9 12.9 13.2 11.1 9.8 9.7 9.6 7.2 5.3 5.5 7.3 7.4 9.1 11.6 12.7 14.5 13.4 11.1 7.7 6.7 6.4 6.3 6.5 5.4 6.3 5.7 4.7 5.2 5.0 5.1 3.9 3.2 3.2
3.5 9.1 6.5 8.3 9.2 11.2 10.8 6.7 5.5 4.5 5.0 8.2 9.6 12.8 12.3 13.7 12.5 12.4 12.7 10.5 12.0 12.3 12.5 14.1 16.5 16.5 14.8 12.8 11.3 7.0 6.5 7.0 7.3 8.3 9.8 9.3 6.0 5.3 5.0 4.0 4.8 3.6 4.4 4.4
5.5 7.9 11.6 19.1 6.0 6.7 16.1 19.8 10.1 13.2 9.4 6.4 14.2 16.0 17.7 19.3 16.2 15.2 14.7 15.1 14.5 14.6 18.6 20.5 17.9 14.3 8.9 6.2 3.3 4.6 5.1 5.0 3.4 3.8 3.8 3.3 3.6 3.1 3.3 2.7 2.5 3.8 4.4 2.7
5.6 7.3 7.8 21.1 9.3 43.4 16.3 9.2 9.6 19.4 14.0 13.3 10.6 12.8 14.3 19.6 19.2 17.0 14.6 13.0 14.9 16.8 14.5 10.1 5.7 3.2 3.6 2.2 2.3 0.7 0.9 1.3 1.7 2.6 2.1 2.0 2.0 1.9 1.6 1.4 2.0 1.8 1.8 1.5
3.7 5.5 24.9 35.7 23.2 6.5 1.1 10.6 13.8 12.8 16.6 15.2 14.9 10.0 14.4 14.1 8.2 13.5 15.8 14.1 14.2 12.1 8.2 7.8 6.7 7.1 2.2 3.5 3.0 1.4 2.2 1.8 1.6 3.0 3.2 2.9 1.5 1.6 1.3 1.5 1.5 1.5 1.3 1.2
4.5 4.3 7.8 27.0 28.1 31.7 7.6 4.1 1.8 4.9 15.3 15.8 17.9 17.0 11.2 0.3 6.1 12.0 13.8 8.7 9.4 8.0 5.6 5.2 4.1 3.0 1.9 2.3 0.9 0.5 0.7 1.4 2.0 1.8 1.8 2.0 1.8 2.0 1.9 1.3 1.3 1.2 0.7 0.5
17.7 20.2 29.2 22.7 24.9 12.2 3.9 0.6 0.4 8.8 11.9 16.4 14.7 14.3 2.1 3.9 5.8 10.1 7.7 6.2 5.7 6.4 6.9 4.3 3.0 2.6 2.0 1.5 1.6 1.3 1.2 2.1 1.5 1.6 1.6 1.4 1.4 1.4 0.8 0.7 0.5 0.4 0.6 0.3
10.2 17.4 27.1 20.3 25.6 35.5 1.6 0.0 4.6 8.0 8.4 10.2 7.8 6.1 5.6 7.6 7.5 5.6 4.3 5.1 4.7 5.6 4.4 4.2 3.5 3.1 2.2 1.1 0.8 1.2 1.6 1.9 1.9 2.0 2.0 2.0 2.5 1.5 1.3 3.3 2.0 3.0 2.2 2.1
8.7 4.7 7.1 4.7 7.9 4.0 3.4 3.8 4.4 5.8 5.0 4.3 2.4 2.0 0.6 0.5 0.8 0.2 0.1 0.1 0.5 0.8 1.5 2.2 2.8 3.3 3.4 3.5 3.0 3.0 2.5 2.2 2.7 3.6 5.1 4.6 3.5 2.5 2.3 3.8 2.5 4.0 2.8 3.9
0.8 0.4 3.0 3.7 1.9 3.2 3.6 1.3 1.7 1.9 0.3 0.1 0.1 0.1 0.0 0.0 0.0 0.0 0.0 0.0 0.1 0.3 0.9 1.0 1.7 2.1 2.2 2.0 1.8 1.6 1.7 1.8 5.9 5.4 2.8 1.8 2.3 1.4 1.6 2.2 2.6 4.2 4.1 3.9
0.3 0.1 0.3 1.4 0.4 1.3 0.6 0.1 0.2 0.7 0.8 0.2 0.2 0.3 0.1 0.0 0.0 0.0 0.0 0.1 0.0 0.1 0.5 1.1 1.3 1.3 1.4 1.3 1.3 1.9 1.6 2.3 2.5 3.1 1.8 2.2 2.8 3.0 1.9 1.6 2.9 2.6 1.1 3.5
0.3 0.5 0.5 0.7 0.3 0.2 0.0 0.0 0.0 0.0 0.2 0.1 0.0 0.0 0.0 0.1 0.0 0.1 0.1 0.1 0.1 0.2 0.4 0.8 1.1 1.1 1.2 1.8 2.2 3.2 4.3 3.8 4.4 2.1 3.4 3.0 2.9 3.0 2.7 3.1 3.9 nan nan nan
Water_Equivalent
0.00 0.04 0.14 0.02 0.00 0.00 0.02 0.00 0.00 0.00 0.00 0.00 0.00 0.00 0.00 0.00 0.00 0.00 0.00 0.00 0.00 0.00 0.00 0.00 0.00 0.00 0.00 0.00 0.00 0.00 0.00 0.00 0.00 0.00 0.00 0.00 0.00 0.00 0.00 0.00 0.00 0.00 0.00 0.00
0.11 0.24 0.01 0.00 0.00 0.04 0.08 0.09 0.08 0.00 0.00 0.00 0.00 0.00 0.00 0.00 0.00 0.00 0.00 0.00 0.00 0.00 0.00 0.00 0.00 0.00 0.00 0.00 0.00 0.00 0.00 0.00 0.00 0.00 0.00 0.00 0.00 0.00 0.00 0.00 0.00 0.00 0.00 0.00
0.20 0.09 0.00 0.00 0.00 0.04 0.12 0.15 0.03 0.01 0.00 0.00 0.00 0.04 0.00 0.00 0.00 0.00 0.00 0.00 0.00 0.00 0.00 0.00 0.00 0.00 0.00 0.00 0.00 0.00 0.00 0.00 0.00 0.00 0.00 0.00 0.00 0.00 0.00 0.00 0.00 0.00 0.00 0.00
0.35 0.01 0.02 0.14 0.19 0.02 0.13 0.00 0.02 0.06 0.52 0.50 0.03 1.28 0.00 0.00 0.00 0.00 0.00 0.00 0.00 0.00 0.00 0.00 0.00 0.00 0.00 0.00 0.00 0.00 0.00 0.00 0.00 0.00 0.00 0.00 0.00 0.00 0.00 0.00 0.00 0.00 0.00 0.00
0.62 0.10 0.03 0.39 0.08 0.00 0.33 0.00 0.00 0.13 0.52 0.52 0.27 1.06 0.00 0.00 0.00 0.00 0.00 0.00 0.00 0.00 0.00 0.00 0.00 0.00 0.00 0.00 0.00 0.00 0.00 0.00 0.00 0.00 0.00 0.00 0.00 0.00 0.00 0.00 0.00 0.00 0.00 0.00
0.11 0.00 0.41 0.30 0.03 0.00 0.01 0.12 0.11 0.41 0.82 4.66 0.24 0.14 0.03 0.03 0.04 0.00 0.00 0.00 0.00 0.00 0.00 0.00 0.00 0.00 0.00 0.00 0.00 0.00 0.00 0.00 0.00 0.00 0.00 0.00 0.00 0.00 0.00 0.00 0.00 0.00 0.00 0.00
0.31 0.27 0.05 0.00 0.84 0.71 0.63 0.99 4.26 5.40 6.20 2.28 0.02 0.10 0.05 0.01 0.01 0.01 0.01 0.00 0.00 0.00 0.00 0.00 0.00 0.00 0.00 0.00 0.00 0.00 0.00 0.01 0.00 0.01 0.00 0.01 0.01 0.00 0.00 0.00 0.00 0.01 0.05 0.05
1.03 1.73 0.34 0.04 0.19 0.58 0.48 0.76 1.45 1.55 1.27 0.45 0.01 1.36 0.23 0.04 0.04 0.13 0.06 0.09 0.00 0.00 0.00 0.00 0.00 0.00 0.00 0.00 0.00 0.00 0.00 0.01 0.01 0.01 0.01 0.01 0.02 0.04 0.00 0.00 0.00 0.00 0.18 0.23
1.53 0.49 0.03 0.09 0.14 0.06 1.36 2.34 0.41 1.79 1.08 1.30 0.41 0.04 0.02 0.01 0.08 0.07 0.18 0.00 0.00 0.00 0.01 0.02 0.01 0.01 0.01 0.00 0.01 0.01 0.01 0.02 0.02 0.02 0.02 0.02 0.02 0.03 0.05 0.03 0.02 0.09 0.03 0.07
0.97 1.73 0.06 0.22 0.35 0.26 0.28 0.04 1.73 3.17 3.41 1.49 0.31 0.13 0.54 0.25 0.43 0.05 0.27 0.03 0.02 0.01 0.01 0.02 0.02 0.02 0.01 0.02 0.02 0.02 0.03 0.16 0.12 0.05 0.03 0.02 0.04 0.06 0.17 0.26 0.14 0.31 0.44 0.32
1.63 2.00 0.84 0.38 2.41 1.43 0.86 0.99 0.60 0.47 1.39 1.96 1.07 1.09 1.80 0.44 0.43 0.51 0.14 0.04 0.05 0.03 0.04 0.04 0.03 0.03 0.27 0.32 0.59 0.36 0.40 1.16 0.33 0.18 0.08 0.08 0.11 0.14 0.42 0.34 0.38 0.77 0.90 1.23
0.57 1.68 2.35 1.86 1.11 0.30 0.29 0.56 0.22 1.74 1.21 0.92 1.21 1.00 1.04 0.75 0.74 0.35 0.10 0.06 0.05 0.05 0.09 0.08 0.12 0.41 0.99 1.02 1.10 1.12 0.92 1.54 0.69 0.57 0.27 0.27 0.20 0.31 0.85 0.69 0.64 0.63 0.71 0.80
1.31 1.98 2.51 1.96 1.31 0.75 1.50 0.45 0.47 0.26 0.58 1.42 1.78 1.28 0.74 0.73 0.59 0.28 0.35 0.14 0.10 0.11 0.11 0.26 0.70 1.38 1.59 1.22 1.29 1.66 1.59 1.41 0.74 0.80 0.46 0.40 0.50 0.39 0.74 0.98 0.77 0.53 0.40 0.41
nan 0.97 1.68 1.90 1.82 1.80 1.64 1.03 0.67 0.53 3.47 1.49 1.33 1.18 1.01 0.79 0.78 0.51 0.39 0.22 0.32 0.51 0.82 1.08 1.13 1.50 1.66 1.72 2.04 1.66 2.01 1.27 1.17 1.06 0.59 0.57 0.66 0.60 0.51 0.54 0.63 0.39 0.47 0.49
0.95 1.65 0.81 0.95 1.13 1.84 1.78 1.21 0.76 1.56 1.56 1.73 1.55 1.32 1.37 1.25 1.17 1.19 1.03 0.71 0.64 0.85 0.89 1.18 1.68 2.02 2.66 2.56 2.04 1.42 1.18 1.22 1.26 1.29 0.83 0.87 0.88 0.67 0.75 0.69 0.78 0.54 0.49 0.55
0.57 1.60 0.73 1.11 1.17 1.51 1.40 0.81 0.70 0.53 0.57 0.97 1.16 1.41 1.81 1.67 1.47 1.51 1.64 1.16 1.17 1.30 1.46 1.97 2.47 2.69 2.21 1.85 1.51 1.01 0.88 1.01 1.23 1.21 1.37 1.21 0.75 0.65 0.57 0.47 0.58 0.51 0.78 0.87
0.79 1.08 2.34 3.85 0.71 0.73 2.81 2.21 1.15 1.52 1.19 0.80 1.47 2.60 2.66 2.59 1.81 1.85 1.68 1.57 1.57 1.92 2.49 2.67 2.38 1.66 0.93 0.67 0.35 0.48 0.59 0.60 0.42 0.47 0.40 0.35 0.39 0.34 0.39 0.32 0.30 0.52 0.64 0.40
0.72 1.02 1.40 4.50 2.05 7.55 2.32 1.24 1.24 2.46 1.68 1.67 1.31 1.77 2.35 2.93 2.55 2.29 1.98 1.64 1.66 1.77 1.67 1.20 0.76 0.46 0.58 0.27 0.35 0.10 0.11 0.16 0.20 0.30 0.24 0.23 0.21 0.25 0.22 0.19 0.29 0.29 0.28 0.25
0.57 0.78 4.89 6.78 3.87 0.91 0.16 1.34 1.59 1.34 2.07 2.05 1.75 1.35 2.10 1.99 0.93 1.92 2.14 1.68 1.80 1.32 1.01 0.96 0.93 0.98 0.29 0.46 0.37 0.17 0.27 0.21 0.18 0.36 0.40 0.38 0.23 0.26 0.20 0.22 0.23 0.24 0.20 0.18
0.62 0.57 1.08 5.67 5.57 4.57 1.09 0.55 0.27 0.68 2.00 2.08 2.42 2.19 1.55 0.04 0.86 2.22 2.32 1.23 1.26 1.00 0.67 0.63 0.50 0.39 0.26 0.34 0.14 0.07 0.10 0.17 0.23 0.21 0.22 0.25 0.26 0.28 0.27 0.18 0.18 0.18 0.11 0.08
2.94 3.87 5.85 4.50 4.69 2.07 0.58 0.09 0.05 1.09 1.73 2.25 2.06 1.98 0.25 0.46 0.85 1.55 1.00 0.77 0.74 0.76 0.80 0.52 0.38 0.31 0.30 0.25 0.25 0.18 0.17 0.26 0.19 0.20 0.18 0.15 0.16 0.19 0.10 0.10 0.06 0.07 0.10 0.05
1.41 2.85 5.19 3.69 4.72 5.46 0.26 0.00 0.47 1.18 1.23 1.47 1.15 0.81 0.66 1.05 1.05 0.76 0.58 0.66 0.56 0.62 0.47 0.48 0.35 0.30 0.23 0.12 0.09 0.13 0.16 0.19 0.19 0.20 0.20 0.21 0.32 0.19 0.17 0.53 0.27 0.47 0.33 0.34
1.19 0.58 1.15 0.58 1.15 0.62 0.49 0.55 0.68 0.81 0.75 0.71 0.35 0.26 0.08 0.06 0.11 0.03 0.02 0.01 0.05 0.07 0.15 0.21 0.26 0.30 0.32 0.35 0.31 0.28 0.23 0.20 0.26 0.43 0.68 0.63 0.50 0.37 0.34 0.63 0.35 0.67 0.45 0.67
0.11 0.06 0.43 0.50 0.29 0.47 0.55 0.23 0.28 0.30 0.06 0.02 0.01 0.01 0.00 0.00 0.01 0.00 0.00 0.00 0.01 0.03 0.09 0.10 0.17 0.21 0.21 0.19 0.18 0.16 0.16 0.18 0.88 0.83 0.37 0.23 0.33 0.22 0.25 0.42 0.50 0.82 0.72 0.64
0.08 0.03 0.06 0.21 0.09 0.22 0.11 0.02 0.04 0.11 0.14 0.03 0.03 0.04 0.01 0.00 0.00 0.00 0.01 0.02 0.01 0.01 0.05 0.12 0.14 0.13 0.13 0.13 0.13 0.23 0.19 0.29 0.35 0.46 0.23 0.30 0.45 0.49 0.27 0.24 0.49 0.42 0.17 0.58
0.05 0.07 0.12 0.17 0.05 0.03 0.01 0.00 0.00 0.00 0.03 0.01 0.00 0.01 0.01 0.01 0.00 0.01 0.02 0.01 0.02 0.04 0.05 0.09 0.13 0.13 0.12 0.19 0.23 0.37 0.58 0.53 0.57 0.23 0.43 0.42 0.43 0.41 0.37 0.40 0.46 nan nan nan
SL_Ratio
nan 6.6 6.2 6.2 5.0 nan 7.3 5.0 nan nan nan nan nan nan nan nan nan nan nan nan nan nan nan nan nan nan nan nan nan nan nan nan nan nan nan nan nan nan nan nan nan nan nan nan
5.2 6.9 5.0 nan 5.0 7.0 7.4 7.8 7.4 nan nan 5.0 nan nan nan nan nan nan nan nan nan nan nan nan nan nan nan nan nan nan nan nan nan nan nan nan nan nan nan nan nan nan nan nan
6.3 5.0 nan 5.0 nan 7.0 7.1 7.7 7.8 7.1 nan nan 6.4 4.8 4.0 nan nan nan nan nan nan nan nan nan nan nan nan nan nan nan nan nan nan nan nan nan nan nan nan nan nan nan nan nan
4.8 3.9 6.4 7.3 8.4 7.4 6.0 5.0 7.0 7.0 6.0 7.1 4.8 7.5 nan nan nan nan nan nan nan nan nan nan nan nan nan nan nan nan nan nan nan nan nan nan nan nan nan nan nan nan nan nan
6.0 4.7 5.6 5.5 6.8 5.0 6.2 nan 6.0 6.8 6.0 7.2 7.3 7.6 5.0 nan nan nan nan nan nan nan nan nan nan nan nan nan nan nan nan nan nan nan nan nan nan nan nan nan nan nan nan nan
6.1 nan 5.6 5.3 5.5 nan 4.6 5.4 5.3 5.5 6.6 7.4 7.0 6.7 5.4 5.0 4.9 nan nan nan nan nan nan nan nan nan nan nan nan nan nan nan nan nan nan nan nan nan nan nan nan nan nan nan
5.5 5.5 4.6 5.0 6.7 5.3 6.2 7.1 7.4 6.9 7.1 7.4 4.9 6.1 6.4 4.8 3.8 3.9 4.0 nan 3.6 nan nan nan nan nan nan nan nan nan nan 3.6 3.6 3.3 3.3 3.5 3.2 2.5 nan nan nan 2.7 2.7 3.1
6.4 5.6 6.2 4.5 6.3 6.1 6.4 7.0 7.5 10.0 8.8 6.2 5.0 7.3 5.0 4.1 4.0 5.0 4.6 4.2 5.0 nan nan nan nan nan nan nan nan nan nan 3.9 3.9 3.6 3.9 3.7 3.9 3.7 nan nan nan 2.9 3.0 2.7
7.0 5.6 5.0 5.6 6.6 7.0 7.0 7.6 6.6 8.6 8.2 10.0 5.2 5.8 4.7 4.3 5.1 5.5 5.4 nan 5.0 5.0 3.5 3.4 3.1 3.6 3.6 3.6 3.9 3.7 3.9 3.8 4.1 4.2 4.3 4.4 4.4 4.3 3.9 3.7 3.6 3.3 3.5 3.2
6.2 7.4 6.0 6.4 5.6 5.3 5.8 5.6 8.2 7.1 8.9 9.7 7.1 6.6 5.8 6.6 6.9 6.7 6.8 5.2 4.2 3.3 3.5 3.6 3.7 3.6 3.5 3.8 3.9 3.7 3.8 3.9 4.2 3.9 4.1 4.4 4.6 4.5 4.7 4.8 5.0 4.6 4.1 4.5
5.2 6.9 7.2 6.6 5.6 5.8 6.7 7.2 6.9 7.2 7.6 8.8 9.3 6.4 4.9 7.4 7.8 8.7 6.2 5.5 5.5 5.2 4.8 4.9 4.6 5.1 4.3 4.1 3.3 4.4 4.4 4.1 4.4 4.8 4.5 4.6 5.0 5.3 5.3 5.7 5.6 5.3 5.2 4.9
5.4 6.7 7.4 5.8 5.2 6.6 7.2 5.3 5.8 6.4 7.8 6.8 7.7 8.5 5.6 7.9 8.0 7.2 6.5 5.7 4.9 5.1 5.3 5.4 5.6 4.9 4.1 4.2 4.1 5.2 5.7 4.8 4.6 4.3 4.7 5.0 5.2 5.4 5.3 5.9 6.3 5.7 5.7 5.0
6.1 7.5 6.9 6.5 6.5 7.0 7.3 6.8 6.3 7.1 6.0 7.3 7.1 7.1 7.0 7.8 6.8 6.4 6.9 6.0 5.5 5.3 5.1 6.1 6.0 4.8 4.3 5.2 5.5 5.4 5.7 5.2 5.6 4.5 4.9 5.6 5.4 5.6 5.0 5.3 5.1 4.8 4.9 5.0
nan 7.2 8.5 8.2 7.1 6.5 8.4 8.5 7.7 7.1 6.0 6.2 8.7 7.6 7.6 7.9 7.7 6.7 5.7 6.4 7.0 7.4 8.4 6.4 6.5 5.8 5.6 5.5 5.4 5.7 5.4 4.8 4.7 4.5 5.9 6.5 5.8 5.9 6.1 5.7 5.4 6.1 5.1 5.0
5.7 6.9 8.8 7.8 8.0 7.3 7.3 8.4 9.2 9.0 8.2 8.0 8.3 10.0 8.1 7.9 8.3 8.0 7.0 7.5 8.6 8.6 8.2 7.7 6.9 6.3 5.5 5.2 5.4 5.4 5.6 5.2 5.0 5.1 6.5 7.2 6.5 7.0 6.9 7.3 6.6 7.2 6.6 5.7
6.2 5.7 8.8 7.4 7.9 7.5 7.7 8.4 7.8 8.5 8.9 8.5 8.3 9.0 6.8 8.2 8.5 8.2 7.8 9.1 10.2 9.5 8.6 7.1 6.7 6.1 6.7 6.9 7.4 6.9 7.4 7.0 6.0 6.9 7.1 7.7 8.0 8.2 8.7 8.5 8.3 7.2 5.6 5.1
7.1 7.3 5.0 5.0 8.5 9.2 5.7 8.9 8.8 8.7 7.9 8.1 9.7 6.2 6.6 7.4 9.0 8.2 8.7 9.6 9.2 7.6 7.5 7.6 7.5 8.6 9.5 9.2 9.5 9.7 8.7 8.3 8.1 8.0 9.3 9.2 9.4 9.2 8.3 8.4 8.4 7.5 6.9 6.8
7.8 7.2 5.6 4.7 4.6 5.7 7.0 7.4 7.7 7.9 8.3 8.0 8.1 7.2 6.1 6.7 7.6 7.4 7.4 7.9 8.9 9.5 8.6 8.4 7.5 7.0 6.2 8.0 6.5 7.4 8.3 8.3 8.5 8.8 8.6 8.8 9.2 7.5 7.0 7.5 7.0 6.3 6.4 6.2
6.6 7.0 5.1 5.3 6.0 7.1 6.7 7.9 8.7 9.5 8.0 7.4 8.5 7.5 6.8 7.1 8.9 7.0 7.4 8.4 7.9 9.2 8.1 8.1 7.3 7.2 7.8 7.6 8.0 8.1 8.3 8.6 8.9 8.2 7.9 7.4 6.4 6.2 6.4 6.8 6.8 6.5 6.5 6.4
7.3 7.5 7.1 4.8 5.0 6.9 7.0 7.5 6.7 7.2 7.6 7.6 7.4 7.8 7.2 7.6 7.1 5.4 5.9 7.1 7.4 8.0 8.3 8.3 8.2 7.7 7.4 6.9 6.9 7.0 7.6 8.3 8.6 8.4 8.3 8.0 7.1 7.3 7.1 6.9 7.0 6.6 6.0 6.1
6.0 5.2 5.0 5.0 5.3 5.9 6.7 7.0 8.6 8.1 6.9 7.3 7.1 7.2 8.4 8.6 6.9 6.5 7.7 8.1 7.7 8.4 8.6 8.3 8.0 8.3 6.7 5.8 6.2 7.2 7.1 8.2 7.8 8.2 8.8 8.9 8.7 7.6 8.0 7.5 7.2 5.9 6.3 6.7
7.2 6.1 5.2 5.5 5.4 6.5 6.2 5.0 9.9 6.7 6.8 6.9 6.8 7.5 8.5 7.3 7.2 7.3 7.5 7.7 8.3 9.0 9.5 8.7 10.1 10.4 9.6 8.8 8.8 9.5 10.0 10.2 10.2 10.1 10.0 9.6 7.8 7.8 7.9 6.2 7.3 6.3 6.6 6.3
7.3 8.2 6.2 8.1 6.8 6.4 6.9 7.0 6.5 7.2 6.7 6.1 6.9 7.8 7.6 8.1 7.8 7.0 8.1 9.4 10.3 10.4 10.3 10.1 10.7 11.0 10.8 10.2 9.7 10.4 10.9 10.7 10.4 8.4 7.5 7.3 7.0 6.8 6.6 6.1 7.0 6.0 6.2 5.9
6.9 6.7 7.0 7.4 6.6 6.8 6.6 5.6 6.1 6.4 5.4 6.5 9.6 8.9 8.8 9.3 8.3 8.0 7.5 15.0 10.6 9.5 10.1 9.8 9.8 10.3 10.8 10.5 10.0 10.0 10.2 9.7 6.7 6.6 7.4 7.5 7.0 6.2 6.3 5.2 5.2 5.2 5.7 6.2
4.5 3.6 4.9 7.0 5.0 5.8 5.4 4.7 5.2 6.0 6.0 6.3 7.4 7.9 8.8 9.3 7.5 9.2 4.2 4.0 4.0 5.5 8.9 9.4 9.5 9.8 10.4 10.1 10.0 8.4 8.6 7.8 7.0 6.7 8.1 7.2 6.3 6.0 7.0 6.7 5.9 6.3 6.4 6.1
6.1 6.9 4.3 4.4 5.3 5.2 4.3 15.0 nan 15.0 8.2 8.5 9.0 4.5 3.3 6.5 5.7 5.0 5.0 4.4 5.2 6.4 7.9 8.5 8.5 9.1 9.9 9.6 9.5 8.8 7.5 7.1 7.6 9.0 7.9 7.1 6.8 7.2 7.4 7.7 8.4 nan nan nan